User: anonymous   Login
Location: Taupo
(38.6830°S, 176.0830°E)
Time: 00:57:14
(UTC+12:00)
Language:

MOS 1 - Orbit

View from above orbital plane
View from above orbital plane
View from above satellite
View from above satellite

Ground track
Ground track

The orbit data is extracted from the following two-line orbital elements,

1 17527U 87018A   19140.58754410 -.00000246 +00000-0 -13009-3 0  9995
2 17527 099.2076 175.0025 0009160 149.4892 322.4091 14.02536230647701
Epoch (UTC): 20 May 2019 14:06:03
Eccentricity: 0.0009160
inclination: 99.2076°
perigee height: 878 km
apogee height: 891 km
right ascension of ascending node: 175.0025°
argument of perigee: 149.4892°
revolutions per day: 14.02536230
mean anomaly at epoch: 322.4091°
orbit number at epoch: 64770

The dashed part of the orbit path shows where the satellite is in the earth's shadow,  

DLR